Dubuque, IA

8:50 PM CDT on October 13, 2019 (GMT -0500)
Dubuque Regional

Weather History for KDBQ - June, 2019

Change the Weather History Date:

Monday, June 10, 2019

  Actual Average Record
Temperature  
Mean Temperature 65 °F -  
Max Temperature 75 °F - 95 °F (1933)
Min Temperature 55 °F - 40 °F (1972)
Growing Degree Days 15 (Base 50)    
Moisture  
Dew Point 47 °F    
Average Humidity 55    
Maximum Humidity 77    
Minimum Humidity 29    
Precipitation  
Precipitation 0.00 in - 2.84 in (1893)
Sea Level Pressure  
Sea Level Pressure 30.16 in    
Wind  
Wind Speed 12 mph ()    
Max Wind Speed 21 mph    
Max Gust Speed 33 mph    
Visibility 10.0 miles    
Events      
T = Trace of Precipitation, MM = Missing Value Source: Averaged Metar Reports

Daily Weather History Graph

Daily Weather History Graph

Search for Another Location

Airport or City:

Astronomy

Jun. 10, 2019 Rise Set
Actual Time 5:25 AM CDT 8:39 PM CDT
Civil Twilight 4:51 AM CDT 9:13 PM CDT
Nautical Twilight 4:06 AM CDT 9:58 PM CDT
Astronomical Twilight 3:12 AM CDT 10:52 PM CDT
Moon 1:20 PM CDT (6/10) 1:48 AM CDT (6/10)
Length of Visible Light 16h 22m
Length of Day
15h 13m
First Quarter, 55% of the Moon is Illuminated
Jun 10
First Quarter
Jun 17
Full
Jun 25
Last Quarter
Jul 2
New
Jul 9
First Quarter

Hourly Weather History & Observations

Time (CDT) Temp. Dew Point Humidity Pressure Visibility Wind Dir Wind Speed Gust Speed Precip Events Conditions
12:03 AM 60.1 °F 52.0 °F 75% 30.08 in 10.0 mi NNW 15.0 mph 25.3 mph N/A   Mostly Cloudy
12:53 AM 59.0 °F 50.0 °F 72% 30.09 in 10.0 mi NNW 18.4 mph 33.4 mph N/A   Partly Cloudy
1:53 AM 57.9 °F 48.9 °F 72% 30.09 in 10.0 mi NNW 19.6 mph 27.6 mph N/A   Mostly Cloudy
2:53 AM 57.9 °F 48.9 °F 72% 30.10 in 10.0 mi NNW 13.8 mph - N/A   Clear
3:53 AM 57.9 °F 48.9 °F 72% 30.11 in 10.0 mi NNW 15.0 mph 23.0 mph N/A   Clear
4:53 AM 55.9 °F 48.9 °F 77% 30.13 in 10.0 mi NNW 10.4 mph - N/A   Clear
5:53 AM 55.9 °F 48.9 °F 77% 30.15 in 10.0 mi NNW 11.5 mph - N/A   Clear
6:53 AM 57.9 °F 50.0 °F 75% 30.17 in 10.0 mi NNW 10.4 mph - N/A   Clear
7:53 AM 60.1 °F 50.0 °F 69% 30.18 in 10.0 mi NNW 9.2 mph - N/A   Clear
8:53 AM 63.0 °F 48.9 °F 60% 30.20 in 10.0 mi NNW 17.3 mph 24.2 mph N/A   Clear
9:53 AM 64.9 °F 46.0 °F 50% 30.20 in 10.0 mi NNW 16.1 mph 27.6 mph N/A   Clear
10:53 AM 68.0 °F 46.0 °F 45% 30.21 in 10.0 mi North 18.4 mph 25.3 mph N/A   Clear
11:53 AM 70.0 °F 46.0 °F 42% 30.21 in 10.0 mi NW 15.0 mph - N/A   Clear
12:53 PM 71.1 °F 46.9 °F 42% 30.20 in 10.0 mi NW 20.7 mph 27.6 mph N/A   Clear
1:53 PM 72.0 °F 45.0 °F 38% 30.19 in 10.0 mi NW 18.4 mph 29.9 mph N/A   Scattered Clouds
2:53 PM 73.9 °F 45.0 °F 35% 30.18 in 10.0 mi NW 16.1 mph 28.8 mph N/A   Partly Cloudy
3:53 PM 75.0 °F 43.0 °F 32% 30.17 in 10.0 mi NNW 18.4 mph 26.5 mph N/A   Clear
4:53 PM 75.0 °F 41.0 °F 29% 30.15 in 10.0 mi NNW 11.5 mph 23.0 mph N/A   Partly Cloudy
5:53 PM 75.0 °F 42.1 °F 31% 30.14 in 10.0 mi NNW 13.8 mph 19.6 mph N/A   Clear
6:53 PM 73.9 °F 39.9 °F 29% 30.14 in 10.0 mi NNW 11.5 mph - N/A   Clear
7:53 PM 70.0 °F 44.1 °F 39% 30.15 in 10.0 mi North 6.9 mph - N/A   Clear
8:53 PM 66.9 °F 43.0 °F 42% 30.15 in 10.0 mi North 4.6 mph - N/A   Clear
9:53 PM 60.1 °F 48.0 °F 64% 30.17 in 10.0 mi Calm Calm - N/A   Clear
10:53 PM 57.9 °F 48.9 °F 72% 30.17 in 10.0 mi SSW 3.5 mph - N/A   Clear
11:53 PM 57.0 °F 48.9 °F 74% 30.16 in 10.0 mi Calm Calm - N/A   Clear